Wind_Speed
14 17 19 20 21 21 20 20 19 20 21 23 25 26 27 27 26 26 27 28 27 26 23 20 18 17 18 19 19 19 20 19 18 19 20 19 17 16 16 17 15 12 9 7 6 6 6 5 5 4 4 4 4 5 6 6 6 7 7 7 6 6 5 5 5 6 7 7 6 4 3 3 6 6 5 4 4 4 4 5 6 6 6 6 5
12 15 18 20 21 22 21 20 21 21 21 23 25 26 28 28 27 28 27 28 28 27 27 25 24 23 21 22 20 18 19 19 19 20 21 19 18 16 16 15 12 9 6 7 8 8 8 7 6 6 5 5 5 5 6 7 7 6 7 6 5 5 5 4 5 5 5 6 6 4 2 3 5 3 4 4 3 4 4 5 6 6 6 6 5
13 15 18 21 22 22 21 20 22 23 22 23 25 27 28 28 28 28 28 28 29 28 28 28 27 25 23 22 21 18 19 19 19 20 20 19 17 15 14 13 11 8 7 9 10 10 9 8 8 7 6 5 5 6 7 7 6 5 5 4 4 4 3 4 4 4 5 5 4 3 2 1 4 3 2 3 2 3 3 4 6 7 5 5 5
15 16 17 20 22 22 22 22 23 22 21 23 25 27 28 30 30 30 29 29 29 29 28 28 27 25 23 23 23 20 19 20 20 20 19 17 16 14 13 13 11 9 9 11 12 10 9 9 8 7 6 5 5 7 7 6 5 4 3 2 3 3 2 2 3 4 5 4 3 2 2 2 1 1 4 2 1 2 3 5 7 7 6 6 6
15 16 16 18 21 23 23 23 22 22 22 23 26 28 30 32 32 31 30 29 29 29 28 28 26 24 22 21 20 19 18 18 18 18 17 15 15 15 14 14 12 11 11 13 13 10 10 9 8 7 6 6 7 7 6 6 5 4 3 2 2 2 1 1 2 3 4 3 3 3 2 2 1 4 5 1 0 1 2 5 8 9 8 8 9
15 16 16 17 20 22 22 23 23 23 24 26 29 32 33 34 34 33 32 31 30 29 28 28 27 25 24 20 16 15 16 16 16 17 16 16 16 16 15 13 13 12 13 15 14 11 10 9 7 6 6 7 7 6 5 5 5 5 5 3 2 2 0 1 1 2 3 2 3 3 3 3 3 4 4 1 1 0 2 5 7 9 9 9 10
15 16 16 16 18 20 21 23 25 26 27 29 31 33 35 35 35 34 34 33 32 31 30 29 28 27 27 24 20 18 17 17 20 20 19 19 17 16 15 13 13 14 15 17 14 11 10 9 7 6 6 6 6 5 4 4 5 6 5 3 2 2 1 1 1 2 2 2 2 3 3 4 3 4 3 3 2 0 1 3 5 8 8 8 9
14 15 16 16 18 20 22 24 27 28 26 28 31 33 35 36 36 35 35 35 34 33 32 30 29 29 29 26 23 22 20 19 22 22 20 19 16 15 16 14 14 15 16 17 15 11 10 8 6 5 5 5 5 5 4 4 4 5 4 3 2 2 1 1 1 2 2 2 2 3 3 3 3 3 3 3 3 2 2 2 4 7 6 6 8
16 16 16 17 19 22 23 24 27 27 25 29 34 34 35 36 35 35 35 35 35 34 33 32 31 31 31 29 26 25 24 21 22 22 20 19 17 16 16 15 13 14 15 16 14 12 11 9 7 6 5 5 5 5 4 4 4 5 4 3 3 3 2 1 1 2 2 2 2 2 2 3 3 3 3 2 3 4 3 3 5 7 5 5 6
16 16 15 17 21 24 24 23 25 26 28 34 35 34 35 35 35 35 35 35 35 35 34 33 33 32 32 32 30 28 27 25 22 21 20 20 18 18 17 14 12 13 15 15 14 13 11 9 8 8 7 6 5 5 5 5 5 5 4 4 4 4 3 3 3 2 2 3 3 3 3 3 3 3 3 3 3 4 4 5 6 6 5 5 4
14 15 15 18 21 22 22 22 23 25 27 31 31 31 32 33 34 35 35 36 36 35 35 34 34 34 34 35 33 30 29 27 24 22 22 21 20 19 19 16 12 14 17 17 16 14 11 11 11 9 8 7 7 7 6 6 5 5 4 4 4 4 5 5 4 4 3 4 4 5 4 3 3 4 3 4 4 4 4 5 7 7 7 4 3
14 14 14 16 17 18 20 22 23 22 23 26 28 28 29 30 33 34 35 36 36 35 35 35 35 35 35 35 34 33 31 29 26 25 24 23 21 21 20 19 17 17 19 19 17 14 12 13 13 11 10 10 9 9 8 6 5 5 5 4 4 4 5 6 6 5 5 5 5 6 6 4 4 4 4 4 4 5 5 6 7 7 7 5 5
15 14 14 14 14 16 20 22 21 21 22 25 26 25 26 30 33 34 35 36 36 35 35 35 35 36 36 36 35 34 32 30 28 26 26 25 23 23 23 22 21 21 21 20 19 16 14 15 15 14 13 12 12 11 9 8 7 6 5 5 5 5 5 5 5 6 6 6 6 6 6 5 5 4 4 5 5 5 5 6 7 6 6 7 7
15 14 15 15 14 16 20 21 21 22 24 25 26 26 27 30 33 35 36 37 37 36 36 36 36 37 37 37 36 34 32 31 29 28 27 26 24 24 24 24 24 23 23 22 20 18 15 15 16 15 15 14 14 12 10 10 9 8 7 6 6 6 5 5 6 6 7 7 7 6 6 7 6 6 6 6 6 6 6 7 7 6 7 8 8
14 14 16 16 16 19 21 21 22 24 26 26 26 26 28 32 35 37 36 36 37 37 37 37 37 37 37 37 36 35 33 32 31 29 28 26 25 25 26 25 24 23 22 21 20 18 15 15 15 15 15 15 14 12 11 11 11 10 9 8 7 7 7 7 7 7 7 8 8 8 8 8 9 8 8 8 8 8 8 8 7 6 6 7 7
15 15 17 16 17 20 21 21 23 24 25 25 26 29 32 34 37 39 38 38 37 37 38 38 38 38 38 38 37 36 34 33 33 30 27 25 25 26 26 25 24 22 21 20 19 17 15 15 15 15 15 15 14 13 12 12 12 11 11 10 9 9 9 9 10 10 10 9 9 9 10 10 10 10 11 10 10 10 10 9 8 7 7 7 6
16 16 16 16 17 19 22 23 24 25 26 26 30 36 38 37 37 38 37 37 37 39 39 38 38 39 39 39 37 36 35 34 33 30 26 25 25 26 26 24 23 22 20 20 19 17 16 15 15 16 16 16 15 13 13 13 12 12 12 12 11 11 11 12 12 12 12 11 10 11 11 11 11 12 12 12 12 13 12 11 11 11 10 7 7
16 16 15 15 16 19 23 25 26 28 29 30 35 39 38 38 38 36 36 38 38 38 39 39 40 40 39 38 37 36 36 34 33 30 26 25 26 27 26 25 24 22 20 20 19 18 16 15 15 17 17 16 15 14 13 12 12 13 13 13 13 13 13 14 14 14 14 13 12 12 12 12 13 13 13 13 14 15 14 14 14 13 12 10 8
15 15 14 14 15 19 23 25 26 28 29 31 34 33 31 33 35 36 38 41 40 38 38 40 41 41 39 37 37 37 36 34 33 30 27 26 27 28 27 25 24 22 21 20 19 18 17 16 16 17 17 16 15 14 13 13 13 14 14 14 15 15 15 14 14 15 15 14 14 13 13 13 13 14 14 14 15 16 16 16 15 16 16 14 13
14 15 15 15 17 21 25 26 27 29 29 30 29 29 30 31 32 34 34 36 38 39 40 42 42 41 38 37 36 36 36 35 33 31 28 28 28 28 27 25 24 23 21 20 19 17 16 16 17 18 17 16 15 15 14 14 14 14 15 15 15 16 15 14 14 15 15 15 14 14 14 14 14 14 14 15 15 16 17 17 17 18 18 17 15
14 14 15 16 18 21 25 26 27 27 26 27 27 28 29 28 29 32 31 31 35 38 41 42 42 39 36 36 36 36 36 35 33 32 30 29 29 28 27 25 24 23 22 21 18 16 15 17 17 18 17 16 15 15 14 14 14 15 16 16 16 16 16 16 16 16 16 16 16 15 15 15 15 14 14 14 14 15 16 18 18 18 19 18 16
15 15 16 16 16 19 23 25 25 24 24 26 26 26 27 27 28 30 30 30 32 36 41 43 39 36 35 36 36 36 35 35 34 33 31 30 29 28 27 25 24 23 22 20 17 14 15 17 17 18 17 17 16 16 15 15 15 15 16 17 17 17 17 18 18 18 18 18 17 17 17 16 15 15 15 15 14 15 15 17 18 17 18 19 18
14 15 15 13 13 17 21 22 23 24 25 27 27 26 27 28 28 28 28 30 31 35 41 41 36 33 35 36 35 35 35 35 35 34 33 32 30 29 27 25 24 23 21 19 15 13 15 17 17 17 18 18 18 17 16 16 16 17 18 18 19 19 20 20 20 19 18 18 18 18 17 15 15 15 15 15 15 16 16 16 17 17 17 19 19
13 13 11 10 12 15 16 17 20 22 23 24 24 24 25 26 26 26 27 30 31 31 33 35 34 33 34 35 35 35 35 35 36 36 35 33 31 29 27 24 23 22 21 19 15 13 15 17 17 17 19 20 20 19 18 17 18 19 19 20 20 21 20 19 18 17 16 15 16 16 15 14 14 14 15 15 15 16 16 16 16 16 16 18 18
12 11 10 11 13 12 12 14 18 21 22 22 23 23 24 25 25 26 27 29 29 27 26 28 30 30 32 35 35 35 35 37 38 38 36 35 33 31 29 26 26 26 24 21 18 16 18 20 20 20 21 22 22 21 20 19 19 20 21 21 21 21 19 16 15 14 13 14 14 15 15 14 14 14 15 15 15 15 15 15 16 15 15 16 16
12 12 11 11 11 11 12 13 17 20 21 22 22 23 23 23 24 26 26 26 26 25 24 24 25 28 33 36 36 37 37 39 41 40 38 37 35 33 31 30 29 29 26 23 22 22 22 23 23 23 23 23 23 22 21 21 21 21 22 22 21 20 17 15 14 13 13 14 14 14 14 14 14 15 15 15 15 15 15 15 16 15 15 15 15
11 10 10 10 11 12 13 14 17 20 20 21 22 23 22 22 23 25 23 22 23 23 23 24 25 28 34 38 39 40 40 40 42 40 38 38 37 35 33 32 30 29 26 24 24 25 25 25 25 26 25 23 23 24 23 23 22 22 23 22 21 19 17 15 15 14 14 14 14 14 14 15 15 16 17 16 16 16 15 15 16 15 15 15 15
10 11 12 12 12 13 13 14 17 18 18 18 19 19 19 20 22 23 22 21 22 23 26 28 29 31 36 39 40 40 39 38 38 38 38 39 38 37 35 32 29 28 28 26 25 25 26 26 27 28 26 24 24 25 25 24 23 23 23 22 20 19 18 16 16 15 15 16 16 16 16 16 16 17 17 17 17 16 15 14 15 15 14 15 15
13 13 13 13 12 13 13 14 15 16 18 18 18 18 19 20 21 21 22 22 22 25 28 30 32 35 38 39 38 36 36 34 35 38 40 39 38 38 37 33 30 29 28 27 26 26 27 27 28 28 27 25 25 25 25 25 24 23 22 20 20 20 19 18 17 17 17 17 18 18 18 18 18 18 18 18 18 18 17 15 14 14 14 14 14
14 14 13 13 13 13 13 12 13 16 18 19 18 18 19 21 21 20 22 22 24 28 30 31 34 37 38 37 36 35 33 31 35 39 40 39 39 40 37 34 33 31 27 26 27 27 26 27 29 29 27 27 27 26 24 23 22 20 19 19 20 20 19 18 18 18 18 19 19 20 20 20 20 19 20 20 20 20 19 18 16 15 15 15 15
13 12 12 11 11 12 12 12 14 17 18 18 18 17 18 20 20 21 22 23 25 29 32 33 35 37 36 35 35 33 31 32 36 38 39 40 41 42 41 37 34 31 28 26 27 26 25 28 30 29 28 28 29 26 23 21 19 18 18 19 19 19 19 18 19 19 20 20 20 20 21 21 20 20 20 20 20 20 19 18 16 17 18 19 19
11 11 11 12 12 13 13 13 15 17 18 18 17 16 17 19 20 22 23 23 26 30 32 34 35 35 35 35 33 30 29 31 33 36 39 39 37 37 38 38 34 30 28 26 26 27 28 30 31 29 28 29 29 26 22 20 18 17 18 19 19 19 18 18 20 21 21 21 21 20 20 20 20 21 20 18 18 18 18 17 17 19 22 23 22
12 12 12 14 14 13 13 14 15 17 18 19 19 19 21 24 25 26 26 25 28 30 31 33 33 33 34 34 30 26 26 29 31 35 38 34 28 28 30 33 34 31 26 25 27 30 31 31 30 28 27 28 28 26 22 20 19 18 18 18 19 19 18 20 21 21 21 21 20 18 17 18 19 21 19 15 14 14 15 16 18 20 21 20 19
12 12 12 12 10 9 11 13 14 17 19 22 25 26 27 28 28 27 27 28 29 30 30 31 30 31 31 29 26 24 24 26 27 30 31 27 26 29 28 26 28 29 27 27 29 31 31 30 28 26 26 26 28 27 24 22 21 20 19 19 20 20 20 21 21 20 20 19 17 16 15 17 17 16 14 11 10 11 13 14 16 17 17 16 15
10 10 10 9 9 9 10 12 15 20 23 25 26 25 23 23 25 25 26 28 29 28 28 27 25 25 24 23 23 23 23 26 27 27 25 24 27 32 29 25 25 27 29 30 28 26 27 28 26 25 24 25 27 27 25 23 23 22 20 21 22 21 20 20 19 18 16 15 15 15 15 14 13 12 10 10 10 11 11 13 15 15 16 15 13
9 10 11 11 12 13 14 16 19 21 21 21 23 21 18 18 21 23 24 26 26 24 22 20 18 19 20 21 22 22 22 27 30 28 26 26 28 31 31 29 27 25 25 25 23 21 22 24 24 25 24 24 25 26 24 23 23 24 22 22 21 19 18 17 16 15 14 15 16 14 11 10 10 10 11 11 12 12 12 13 14 14 15 14 13
7 9 10 11 13 14 16 18 19 18 18 18 20 20 18 17 18 20 22 23 22 19 17 16 16 17 19 20 21 22 24 27 29 28 27 28 30 30 30 28 25 23 22 23 21 19 20 22 23 23 24 25 25 25 24 22 23 25 24 22 20 17 15 14 13 14 15 15 14 11 8 8 9 9 11 12 12 13 12 12 12 13 14 15 15
8 8 9 10 10 11 13 14 14 13 15 16 18 19 18 16 15 16 17 17 15 14 14 15 15 16 19 19 20 23 27 28 27 26 27 30 31 28 24 23 22 22 22 21 19 18 18 20 21 20 21 23 23 23 23 21 21 23 22 20 18 16 14 12 12 14 15 14 12 10 8 7 7 8 11 13 13 13 12 10 11 13 14 15 15
9 9 11 11 12 13 13 13 11 10 11 13 15 15 14 12 10 11 12 11 11 11 12 13 14 15 18 19 20 23 28 29 27 26 28 31 31 26 21 19 20 21 20 18 17 16 15 17 19 18 20 22 20 19 20 20 20 20 21 20 18 15 12 12 13 14 14 13 12 10 8 7 7 9 12 13 13 13 12 9 9 11 14 14 14
13 13 14 14 15 15 14 12 11 11 11 14 15 13 11 9 8 8 8 8 9 10 11 13 13 14 18 19 20 25 28 26 26 27 28 29 26 22 18 17 18 19 19 16 15 14 14 15 16 16 18 19 17 16 17 17 17 19 20 20 16 11 10 11 12 13 13 10 9 7 6 7 8 9 12 13 13 13 12 10 8 9 11 13 11
16 17 18 17 16 16 15 13 13 13 14 15 15 13 10 9 8 7 6 7 9 10 12 13 13 14 17 18 20 24 23 21 24 28 29 26 20 16 16 17 17 17 17 15 14 14 15 16 17 18 16 15 15 16 15 15 17 19 20 18 12 7 11 14 13 13 11 8 6 5 5 8 9 10 11 12 13 13 13 12 10 9 11 13 12
17 17 17 17 15 15 15 14 12 13 13 13 14 13 10 8 7 6 7 8 9 11 12 13 13 14 16 17 19 20 19 19 23 28 29 26 18 12 14 16 16 15 15 14 15 17 18 18 19 17 13 12 12 14 15 18 20 19 18 16 12 9 14 16 14 12 9 6 6 6 7 9 10 11 11 12 12 12 10 10 9 9 10 12 12
14 13 14 17 15 13 13 12 11 11 11 11 11 12 10 8 7 7 8 9 9 10 12 12 13 14 15 16 18 19 19 21 25 28 29 26 17 12 14 16 16 15 14 13 15 16 17 17 15 10 8 9 11 14 16 19 19 16 16 16 13 11 14 15 12 10 7 6 7 7 8 10 11 11 10 9 8 7 6 6 6 8 10 11 12
12 12 13 17 15 12 12 13 11 11 11 9 9 10 9 8 8 9 9 9 10 11 11 12 13 14 15 16 17 19 20 22 26 29 28 23 17 15 17 17 17 16 14 12 12 13 12 13 12 9 9 12 14 17 17 17 15 14 15 15 13 11 12 12 10 8 7 7 7 8 10 11 10 9 8 6 5 5 5 5 7 8 10 11 10
13 14 14 15 13 11 12 12 10 10 10 10 9 9 9 8 8 9 9 10 11 11 11 11 12 14 15 16 17 18 20 22 26 28 27 22 18 18 18 17 17 16 13 10 10 11 11 12 11 10 12 16 17 16 15 16 15 15 15 14 13 12 12 10 8 7 8 8 9 10 10 9 8 6 5 4 4 5 5 6 8 9 8 8 8
12 13 13 12 12 12 12 11 9 7 8 8 8 8 7 7 8 9 9 10 11 12 12 12 12 14 15 16 17 18 19 21 23 24 23 20 19 20 18 16 15 13 11 9 9 10 12 13 13 11 12 14 13 11 12 14 16 16 15 15 13 12 10 8 8 9 9 9 9 10 8 7 6 5 4 4 5 6 7 7 8 8 7 7 8
9 10 11 10 10 10 10 10 8 6 6 7 7 6 6 8 9 9 10 11 11 12 12 12 13 14 15 16 18 18 18 19 20 20 19 18 18 19 17 16 15 12 9 9 10 11 12 13 13 11 11 11 10 9 10 13 16 18 17 16 13 11 9 8 7 8 8 7 7 8 6 5 5 5 5 6 6 6 6 5 5 6 7 8 8
8 7 8 8 8 8 8 8 7 7 6 6 6 6 7 9 10 10 10 12 12 12 12 12 12 13 14 16 18 18 18 18 18 18 17 15 15 15 15 14 14 12 10 11 12 11 11 12 11 10 9 10 10 10 11 14 18 19 17 15 12 9 8 7 6 7 7 5 4 4 4 4 5 5 5 5 5 4 4 4 4 6 7 8 8
7 6 6 7 7 7 6 5 5 6 6 6 6 7 8 10 10 11 12 12 12 12 11 11 12 13 14 15 16 17 17 16 14 15 15 13 13 14 12 11 12 13 14 14 12 10 11 11 10 9 9 9 9 11 13 16 18 18 15 12 10 8 7 7 7 6 6 4 4 4 5 5 6 6 6 5 4 2 2 3 4 5 6 6 6
7 6 6 6 5 5 4 4 5 6 7 7 7 8 9 9 10 12 14 13 13 12 11 11 12 12 13 13 13 13 13 13 12 13 13 12 11 12 12 11 13 14 15 14 13 11 10 9 8 9 12 12 10 11 12 13 14 14 12 10 9 7 7 7 6 5 4 5 5 6 6 6 6 5 5 4 3 3 3 3 4 5 4 4 5
6 4 4 4 3 3 3 5 6 8 8 8 8 9 10 10 12 14 15 14 13 12 10 10 11 11 12 13 13 12 12 14 14 13 12 11 10 9 9 10 11 12 12 13 13 12 12 11 11 11 14 16 14 11 9 8 9 10 9 8 7 7 6 5 4 4 5 5 5 5 5 4 4 4 3 3 3 3 4 4 4 4 4 4 5
Wind_Direction
202 203 205 206 208 208 208 208 208 209 210 212 214 215 217 217 215 216 219 221 221 221 218 214 214 216 220 225 228 232 236 238 243 248 252 254 258 262 260 260 262 264 267 252 229 224 215 207 209 203 208 224 241 257 267 272 274 277 280 287 300 309 313 318 321 319 320 324 322 337 14 109 124 85 61 65 54 53 58 59 58 55 59 65 75
199 201 204 206 209 209 209 208 207 208 209 211 212 215 217 217 217 218 219 220 221 222 221 221 222 222 223 225 227 230 234 239 245 249 252 255 256 255 254 255 255 253 245 225 213 209 204 204 210 213 224 240 256 269 273 274 274 274 279 292 306 309 313 324 331 327 330 343 336 332 31 112 148 113 57 59 55 56 65 62 54 48 54 64 72
200 203 204 207 209 209 208 208 209 209 208 210 212 216 217 217 219 220 220 221 223 224 225 226 228 228 228 229 230 231 236 241 246 249 252 254 255 253 253 250 243 236 223 214 209 204 204 207 213 223 230 240 264 276 272 266 266 267 274 290 301 302 308 324 337 341 339 342 330 314 0 22 180 174 27 40 61 52 64 62 48 44 54 67 69
202 205 206 205 206 207 207 208 209 209 208 208 210 213 216 218 221 221 221 223 224 226 227 228 230 231 232 234 235 236 240 244 245 246 248 249 249 249 249 245 238 230 217 214 211 205 207 212 219 225 227 245 270 275 270 263 257 252 262 277 284 291 301 331 340 347 345 343 333 331 331 303 192 53 345 345 108 49 63 55 42 43 59 70 64
203 204 205 202 203 204 205 206 207 208 208 208 209 213 217 220 223 223 223 224 226 228 227 227 228 229 230 232 234 236 239 242 240 239 239 238 240 244 245 241 236 228 216 215 212 209 214 217 222 225 233 262 274 271 270 265 255 250 262 257 249 277 297 334 345 348 344 343 332 327 316 306 10 359 338 300 178 14 55 46 41 44 56 63 57
206 206 204 201 201 201 202 203 204 208 210 211 213 217 220 222 224 224 224 225 228 229 228 226 224 224 224 221 218 220 225 227 226 228 232 235 240 244 244 238 232 225 216 215 213 212 217 216 218 228 248 268 268 264 263 261 259 259 268 258 223 240 259 349 4 352 333 327 319 309 309 319 338 340 333 339 339 340 53 36 40 42 49 53 48
208 210 208 204 201 199 201 202 204 209 211 212 215 218 221 222 223 223 224 225 228 228 227 225 222 221 222 219 214 212 214 219 225 230 235 239 244 245 242 235 227 220 214 214 213 213 216 214 219 236 250 253 246 240 242 252 257 256 256 244 231 249 270 343 353 347 325 320 318 302 302 306 314 326 323 333 339 27 38 34 41 32 38 46 42
206 208 207 206 202 200 201 201 205 209 208 209 214 217 220 221 222 223 223 225 226 227 226 224 221 220 221 220 218 218 218 222 230 235 237 239 241 240 238 234 223 216 213 213 212 210 211 212 222 235 233 229 223 220 233 249 253 251 248 232 238 261 278 310 326 329 312 305 309 296 303 310 318 325 306 316 329 312 334 32 31 15 27 42 40
207 207 205 205 204 203 203 202 205 207 205 211 215 217 219 220 220 221 222 223 225 225 224 224 223 222 222 220 220 223 224 226 232 235 236 236 236 237 236 229 219 214 212 211 209 206 207 216 232 233 220 218 219 224 249 267 259 255 256 251 254 261 269 264 254 282 281 282 293 287 295 298 295 295 277 288 307 303 317 342 347 354 14 28 32
209 209 207 206 206 206 206 205 205 204 207 213 215 215 217 217 217 218 220 221 223 224 223 223 223 223 223 223 222 224 225 226 229 231 233 231 231 235 233 221 210 209 208 205 204 203 207 225 233 225 219 224 227 236 263 275 264 258 260 261 264 267 267 256 244 251 257 263 272 277 283 283 281 279 266 273 286 281 283 304 324 338 346 355 16
206 208 209 209 209 207 204 205 205 203 205 209 209 211 213 213 214 215 218 220 221 222 222 222 223 223 224 224 224 224 224 224 224 225 227 226 227 230 227 217 206 204 202 200 202 204 214 227 223 216 220 228 234 244 259 262 251 249 256 259 258 254 256 258 256 255 255 254 253 258 265 273 284 291 293 287 281 282 283 297 317 330 327 321 332
199 203 206 207 206 202 202 205 204 199 199 201 203 205 207 209 211 212 215 218 219 219 220 220 221 222 224 225 225 224 224 223 222 223 224 222 224 226 222 214 205 201 200 199 202 207 217 221 216 217 223 228 233 241 251 251 239 238 248 253 247 241 247 253 256 257 258 258 256 259 261 264 268 275 286 281 272 284 293 296 309 323 321 307 313
197 198 202 203 199 196 201 203 198 193 196 198 199 200 201 206 209 210 213 216 217 217 218 219 221 223 224 224 225 225 225 225 224 224 224 222 223 222 215 207 201 199 200 201 206 210 215 216 215 220 226 229 231 236 247 248 239 238 244 243 237 239 246 249 254 259 260 259 264 268 265 265 266 264 269 268 264 271 276 285 298 305 299 297 305
198 197 199 201 197 196 198 196 191 193 197 197 197 197 200 204 208 210 213 215 216 216 217 218 221 223 225 225 225 224 224 225 225 225 224 224 223 218 211 204 202 203 205 208 210 210 212 216 217 221 228 230 231 235 245 243 237 238 242 241 238 240 244 250 258 263 263 263 266 269 268 265 267 267 264 262 263 265 268 281 292 291 282 284 286
199 197 200 199 196 196 196 191 189 193 196 195 195 197 200 204 207 209 211 213 214 215 216 218 221 223 225 225 225 224 224 224 225 225 224 224 221 215 210 207 208 210 212 213 212 210 211 215 218 224 230 230 230 237 243 240 236 238 241 243 243 243 244 248 254 257 261 264 264 265 268 267 266 266 265 263 262 263 267 275 283 289 289 288 285
200 201 203 200 195 195 195 193 191 192 194 194 194 197 201 205 208 210 211 213 214 215 217 218 221 223 224 224 223 223 223 224 224 223 223 224 221 215 212 213 214 216 216 214 211 210 212 216 222 227 229 227 229 238 242 237 236 239 243 245 245 246 248 249 253 256 259 262 264 265 266 267 268 266 264 263 262 262 266 268 270 278 290 298 297
199 201 200 196 193 194 194 193 192 192 193 194 197 202 204 205 207 209 210 211 214 216 218 219 221 223 224 223 222 221 222 223 222 221 221 223 221 217 216 217 218 217 215 213 211 210 214 219 225 226 224 224 230 237 239 237 240 242 243 245 246 249 255 256 257 259 260 261 263 265 267 270 270 268 264 262 263 264 264 264 264 269 277 287 297
197 198 197 194 192 194 194 193 194 194 194 197 201 204 205 206 207 207 208 211 214 216 217 219 221 223 223 220 219 221 222 223 222 221 221 221 219 217 217 218 217 216 213 210 209 210 214 219 221 219 219 225 233 236 235 237 242 244 245 247 250 254 259 262 262 262 263 264 267 269 272 273 273 272 267 263 264 265 264 264 264 265 262 259 272
197 197 196 195 195 196 194 193 195 195 196 199 201 201 200 204 206 207 210 213 214 215 218 221 223 223 222 220 220 221 222 222 220 219 219 219 217 216 216 217 216 213 210 208 208 210 214 217 215 215 220 230 235 234 235 240 244 246 249 252 255 258 260 262 263 263 265 267 269 270 271 272 274 274 271 268 268 268 267 265 265 265 259 251 252
194 196 195 194 196 198 195 193 194 195 197 200 199 198 200 202 204 205 209 211 213 216 219 222 223 222 221 221 221 221 221 219 218 216 216 216 217 216 214 214 212 210 207 206 207 210 214 216 214 217 226 233 235 233 236 242 245 248 251 255 258 261 262 262 262 264 267 268 268 267 268 271 275 275 273 272 271 271 271 269 265 263 260 253 244
192 192 194 195 196 197 194 194 196 195 196 198 197 199 201 201 201 203 204 206 211 216 219 222 223 221 220 220 221 220 218 217 215 215 215 215 216 215 214 211 208 206 205 203 203 207 216 219 218 224 231 233 233 235 238 242 245 248 252 256 260 262 262 262 262 264 268 271 271 270 270 275 278 277 276 275 272 271 272 270 267 262 261 257 246
193 192 195 195 191 190 190 190 192 192 193 195 197 199 199 199 201 202 203 204 208 214 220 223 221 218 219 220 220 219 216 214 213 213 215 215 215 215 213 209 206 205 203 199 196 201 215 220 221 227 232 233 234 236 238 240 243 247 251 254 258 260 261 262 264 268 271 274 275 275 277 278 278 278 278 278 276 272 270 268 267 263 262 262 255
194 194 196 192 183 182 183 184 185 188 191 194 196 197 197 200 202 201 202 205 208 214 221 222 218 217 219 219 219 217 214 213 212 213 213 213 213 214 211 206 205 203 198 196 197 202 211 216 219 226 233 237 240 239 240 242 246 249 253 257 260 262 264 265 267 270 273 275 276 278 280 279 277 278 279 279 279 276 272 267 265 263 260 263 263
191 194 191 179 174 175 178 181 184 188 192 193 195 196 198 201 202 202 204 207 209 213 218 219 217 217 218 218 217 216 213 211 211 212 211 210 210 209 205 204 203 197 193 195 198 201 209 214 215 221 233 241 243 244 245 248 251 254 257 261 265 268 268 267 267 270 273 272 273 276 278 278 278 280 281 281 280 279 275 268 265 262 258 262 266
189 188 177 171 175 176 178 182 185 190 193 193 193 195 198 201 201 203 207 209 210 212 213 214 213 212 214 216 216 215 212 210 211 210 209 207 206 203 201 199 196 193 192 191 189 193 209 217 214 215 227 240 245 246 248 251 254 257 260 263 269 271 269 266 267 271 272 271 271 274 277 281 282 282 282 280 277 276 275 270 265 261 257 259 262
188 184 175 174 176 176 180 184 188 193 194 194 195 197 200 201 202 206 209 210 210 210 209 208 206 208 214 216 215 214 212 210 211 209 206 205 203 200 198 195 193 193 192 189 188 193 205 215 218 217 223 235 244 247 248 251 254 259 264 268 271 269 262 260 264 268 271 272 272 272 275 279 281 281 279 277 276 276 274 271 267 262 261 260 259
183 176 172 171 173 178 183 185 190 194 195 194 196 198 199 200 202 207 209 207 207 206 206 207 205 209 215 216 216 216 214 212 209 205 204 204 202 199 196 195 195 195 191 189 194 199 204 212 219 222 224 232 242 247 249 252 256 261 267 271 270 262 254 255 260 264 267 270 269 269 273 277 280 281 280 278 278 276 274 274 271 267 264 262 262
177 177 177 176 178 179 180 185 190 193 193 193 195 197 198 199 203 206 206 206 205 205 208 211 211 213 217 219 219 217 215 211 204 202 205 205 202 199 197 195 194 193 192 194 199 206 210 214 219 225 230 236 242 248 251 254 259 265 268 267 262 254 250 254 260 263 265 267 268 271 275 278 280 282 282 282 280 276 275 275 275 274 271 268 269
184 185 182 177 176 176 179 184 187 188 189 191 194 196 197 200 204 204 205 207 207 207 211 212 213 217 220 220 219 216 214 207 200 201 204 201 200 200 198 194 192 194 198 200 203 211 217 220 223 230 238 244 246 248 252 256 261 265 263 259 254 249 249 255 262 266 268 270 271 273 275 278 280 282 283 283 281 280 278 275 273 275 276 276 276
191 186 180 178 176 175 176 177 180 186 189 191 193 193 195 200 203 202 204 207 207 210 212 212 214 218 220 219 218 215 212 203 199 201 200 196 197 201 199 192 190 195 200 203 208 215 221 227 230 232 238 246 248 250 254 257 258 258 255 253 252 249 250 257 264 268 272 274 275 276 278 279 280 281 283 284 285 285 281 276 272 273 275 276 276
191 179 173 173 171 170 173 176 182 187 187 189 190 189 193 199 201 202 205 206 208 212 213 213 215 218 218 217 216 213 207 201 198 199 197 195 196 197 197 192 189 192 196 204 212 216 221 232 236 235 238 245 248 251 255 257 254 251 251 252 252 251 254 261 266 269 273 276 277 278 278 279 280 282 284 286 289 290 285 279 277 278 282 282 276
180 170 168 171 172 173 176 180 185 186 186 187 185 184 191 197 200 203 205 205 208 211 213 214 216 217 217 216 213 207 202 199 198 196 196 197 195 193 192 188 187 191 196 206 215 216 220 232 237 237 239 244 248 251 254 256 253 249 249 250 250 253 258 264 269 273 277 278 277 276 276 279 281 283 286 289 292 292 289 284 284 287 289 288 283
173 171 172 175 177 177 178 180 181 181 183 185 182 185 195 202 205 206 206 205 208 211 212 214 215 215 216 214 208 201 197 197 197 195 196 197 193 192 191 188 189 196 202 211 217 217 224 233 236 235 239 246 251 251 252 255 251 246 247 246 249 255 260 266 272 276 279 278 276 276 275 277 281 285 291 295 292 290 290 289 291 292 291 291 292
174 177 177 174 170 167 170 173 175 179 185 189 192 198 204 207 208 208 207 207 209 211 212 213 213 213 213 209 202 197 194 194 194 192 193 193 190 193 194 189 190 197 206 216 220 221 228 234 234 236 242 250 252 250 252 255 249 244 247 248 252 258 262 268 273 274 275 275 273 271 271 276 282 287 294 298 290 286 289 291 292 291 290 290 294
174 170 165 158 153 156 162 169 178 185 189 193 197 200 202 204 205 204 206 208 209 210 210 210 208 208 206 201 197 195 193 193 192 190 188 190 191 193 192 189 193 201 210 218 222 225 231 234 235 239 246 251 252 252 255 256 248 245 249 253 256 260 263 268 270 270 270 268 266 269 273 278 285 290 295 295 289 287 289 289 287 287 289 292 292
174 164 160 159 163 167 171 177 182 185 186 190 194 192 189 193 198 200 203 206 207 208 207 203 199 198 199 195 193 194 194 195 196 191 187 188 191 193 193 195 201 207 213 219 225 227 231 234 237 244 249 250 252 253 256 255 249 246 249 254 256 257 261 264 264 263 264 263 266 271 276 282 289 294 294 291 288 289 288 285 284 287 293 297 297
160 159 156 158 163 164 169 175 177 180 183 185 187 186 182 182 187 193 198 201 202 203 200 194 191 193 194 191 189 191 194 196 196 191 188 188 189 190 193 197 203 209 215 220 225 227 231 236 240 247 252 252 253 255 255 255 251 247 248 251 251 249 251 253 254 259 263 265 270 275 279 286 291 288 285 287 291 293 291 285 286 292 296 298 298
144 146 137 135 139 141 151 160 162 170 179 180 178 178 175 174 176 184 190 193 195 195 192 190 189 188 189 188 186 190 196 198 195 191 189 189 190 191 193 197 202 211 218 220 222 226 231 237 242 248 251 251 252 254 255 256 255 250 247 246 243 240 240 242 249 259 265 269 273 277 280 282 280 276 279 288 294 295 294 290 290 294 294 295 296
113 116 114 115 117 119 127 134 134 142 155 162 165 164 161 160 162 171 179 184 187 188 186 186 186 184 186 185 183 190 198 199 197 194 191 189 192 196 198 199 206 216 221 221 223 228 233 240 247 252 252 250 248 250 256 261 259 251 245 240 235 230 231 239 249 257 261 266 270 274 281 282 278 281 287 294 300 301 300 294 288 290 289 290 294
99 99 100 101 104 106 107 109 112 119 132 146 152 149 141 138 143 158 174 179 180 181 181 181 181 181 184 184 184 192 198 198 199 199 193 189 193 198 200 205 213 219 222 223 226 232 239 246 252 253 251 249 245 246 258 266 257 245 241 234 222 218 232 242 249 253 253 256 261 266 281 289 291 293 296 301 303 302 301 295 282 280 281 281 287
99 99 98 97 97 100 101 104 113 125 135 143 144 134 123 124 135 155 171 176 177 180 179 177 174 177 181 182 186 192 193 193 197 198 195 193 195 198 203 211 216 218 220 225 230 239 249 256 258 256 251 244 239 243 254 256 244 236 234 223 206 220 247 242 243 250 248 245 250 256 276 292 300 303 301 301 300 298 298 292 279 268 266 271 283
100 104 107 107 103 101 102 105 114 127 135 140 137 126 118 125 143 165 174 175 176 176 173 172 173 177 178 179 185 188 186 189 195 196 196 199 201 202 208 212 214 215 219 228 240 252 260 261 261 258 244 227 233 246 246 237 229 225 224 220 215 231 240 234 236 246 243 242 262 276 288 297 305 308 302 299 299 298 296 287 278 274 273 278 290
107 109 115 113 105 100 101 101 109 120 127 134 132 124 122 135 155 173 175 171 170 168 167 169 175 180 180 180 184 185 184 191 195 195 199 205 206 206 208 208 208 213 220 230 244 253 257 257 254 244 213 204 235 248 234 220 217 216 219 227 230 226 225 227 234 242 244 258 281 293 300 303 308 309 305 304 305 302 296 286 281 280 282 288 300
86 86 91 95 96 100 102 101 107 119 125 133 134 130 136 151 164 173 171 165 162 163 165 171 177 181 182 181 184 186 188 192 194 195 200 204 204 205 207 205 207 213 218 225 235 240 243 245 239 215 185 190 213 225 216 206 210 219 223 227 228 224 228 236 244 254 267 282 292 299 303 306 309 308 305 306 305 298 290 280 278 282 289 298 311
74 73 74 80 89 99 99 97 101 115 128 142 153 154 155 159 166 170 169 166 162 162 167 176 180 183 185 183 184 188 191 192 195 199 202 204 202 203 205 203 205 211 214 216 222 226 231 238 233 209 185 185 194 205 209 207 214 224 225 223 224 229 238 246 255 270 283 291 295 299 302 304 303 300 299 297 287 282 282 279 283 292 299 310 322
88 88 88 91 96 97 96 98 104 118 137 155 167 168 162 164 170 170 170 170 167 165 171 178 180 184 188 187 187 191 195 196 198 202 205 205 204 203 202 202 203 207 210 212 220 227 232 236 235 218 192 184 186 194 204 210 215 219 220 222 226 233 242 254 266 276 287 295 296 296 296 292 284 276 267 260 262 273 285 291 298 309 317 324 329
85 99 109 111 108 105 106 113 123 138 155 165 171 170 171 177 174 168 170 174 172 171 174 175 177 182 188 192 194 194 195 198 201 205 207 208 207 205 205 206 205 201 203 213 223 229 229 232 234 219 187 176 184 193 197 206 212 214 216 219 222 229 243 256 265 276 287 292 290 289 285 272 264 260 254 254 259 273 288 300 313 324 328 328 326
69 90 104 102 101 109 118 126 138 152 165 171 172 171 175 178 174 169 173 177 177 178 176 172 176 181 186 193 197 196 196 201 203 205 208 208 208 207 208 208 206 206 217 227 229 227 223 225 228 217 189 177 187 196 198 204 207 208 209 212 214 221 239 247 251 268 279 273 262 270 265 246 242 243 243 245 248 262 291 316 328 331 329 327 321
50 47 59 75 87 103 116 127 143 160 173 179 178 177 177 177 176 177 179 178 177 177 175 172 176 183 186 191 196 197 198 198 196 197 201 203 203 204 206 211 218 227 236 237 229 222 223 226 225 218 206 195 196 211 220 218 211 207 207 210 212 219 239 252 258 267 267 239 213 230 237 231 231 235 241 246 251 275 322 332 332 332 330 324 318
47 42 50 64 76 96 121 151 169 178 185 186 184 184 180 176 180 185 185 182 178 174 173 176 180 185 189 191 193 191 187 183 183 187 192 195 200 205 209 214 225 235 241 238 230 223 223 221 215 216 221 222 223 234 238 227 213 211 216 222 228 238 251 262 264 252 225 205 210 226 232 233 240 250 263 280 305 332 335 327 323 323 320 316 312
44 49 58 66 81 120 164 190 193 192 192 189 188 190 188 188 196 197 193 187 179 174 174 181 185 186 187 189 189 182 172 174 182 187 188 190 191 196 203 212 223 232 237 235 229 223 222 221 220 225 232 232 230 232 230 214 206 215 224 229 240 253 258 253 235 205 196 206 224 234 237 241 254 271 294 322 336 332 325 322 318 311 308 313 314
Height
791 794 796 798 800 802 804 805 807 808 809 811 812 813 815 816 818 819 821 823 824 826 827 829 830 831 832 832 833 834 835 836 837 837 838 839 840 841 841 842 842 843 844 844 845 846 846 846 846 847 848 848 848 848 848 848 848 849 848 848 849 849 848 848 848 848 847 846 845 844 843 843 843 843 843 843 842 842 841 840 840 839 839 838 837
789 792 793 796 798 799 802 803 804 806 807 808 810 811 813 814 816 817 819 821 822 823 825 826 827 828 829 830 831 833 834 834 835 836 837 838 839 839 840 840 841 842 842 843 844 845 845 845 846 846 847 847 848 847 848 848 848 848 848 848 849 849 849 848 848 847 847 847 846 844 843 843 843 843 843 843 842 842 842 841 841 840 839 838 837
787 788 789 792 794 796 799 800 801 803 804 806 807 809 811 812 814 815 817 818 819 821 822 824 825 826 828 829 830 832 832 833 834 834 836 836 837 838 838 839 840 841 841 842 843 843 844 844 845 846 846 846 846 847 847 847 847 847 848 848 849 849 849 848 848 848 847 847 847 846 844 843 843 843 843 843 843 842 842 842 841 841 840 839 838
784 785 785 788 791 793 795 796 798 800 802 803 805 807 808 809 811 813 815 816 817 819 820 822 824 825 827 828 829 830 831 832 833 833 834 835 836 836 837 838 839 839 840 841 842 842 843 843 844 844 845 845 845 846 846 846 846 846 847 847 848 848 848 848 849 849 848 848 847 847 846 845 844 843 842 843 843 843 843 843 842 842 841 840 840
780 781 781 783 786 788 790 792 795 797 798 800 801 803 805 806 808 810 812 814 815 817 818 821 822 824 826 827 828 829 830 830 831 832 832 833 834 835 835 836 837 838 839 840 840 841 841 842 843 843 844 844 844 844 845 845 845 846 846 846 847 847 848 848 848 848 848 848 848 848 847 846 845 844 843 843 843 843 843 843 843 843 842 841 841
775 776 777 778 780 784 786 789 792 793 794 796 798 800 802 804 806 808 810 811 813 815 817 819 820 822 823 825 826 827 828 828 828 829 830 831 832 833 834 835 836 837 837 838 839 840 840 841 842 842 842 843 843 843 844 844 845 845 846 846 847 847 847 847 847 848 848 848 848 848 848 848 847 846 845 844 843 843 844 844 844 844 843 842 842
770 771 772 774 777 780 782 785 787 788 790 792 795 797 799 801 803 805 807 809 811 812 814 816 818 819 821 822 823 824 825 825 826 828 829 830 831 831 833 833 834 835 836 837 837 838 839 840 841 841 842 842 842 843 843 843 844 845 845 846 846 847 847 846 846 847 847 847 848 848 848 849 849 848 847 847 846 844 844 844 845 844 844 844 843
766 768 769 770 772 774 777 779 781 783 786 789 791 793 795 798 800 802 805 806 808 810 812 813 815 816 818 819 820 821 822 823 824 826 827 828 829 830 831 832 832 833 834 835 836 837 838 839 840 840 841 841 842 842 842 842 843 843 844 845 846 846 846 846 846 846 846 847 847 847 848 848 849 849 849 848 848 847 845 844 845 845 845 845 844
760 762 764 765 767 770 772 774 777 780 783 785 787 790 792 795 798 799 802 804 805 807 809 811 812 814 815 816 818 819 820 822 823 824 826 826 828 828 829 830 831 832 833 834 835 836 837 838 839 840 840 841 842 842 842 842 842 842 843 843 844 845 845 845 845 846 846 846 846 846 847 848 848 849 849 849 849 849 846 844 844 845 844 845 845
755 757 759 761 763 765 768 771 774 777 779 781 784 787 790 792 795 797 799 801 803 804 806 808 810 811 813 813 815 816 818 820 821 822 823 824 826 827 827 828 829 831 832 833 834 835 836 837 837 838 839 840 841 841 842 842 842 842 842 842 843 843 844 844 845 845 845 845 845 845 846 846 847 847 848 849 849 849 848 845 844 844 844 844 844
752 754 756 758 760 763 766 769 771 773 776 779 782 784 787 789 792 794 796 798 800 801 803 805 807 808 809 810 812 814 816 818 819 820 821 822 823 825 826 827 828 830 831 832 834 834 835 836 837 838 838 839 840 841 841 842 842 842 841 841 842 842 843 843 844 844 844 845 845 845 845 845 845 846 846 847 848 847 847 845 843 843 843 843 843
748 752 753 755 758 761 764 765 767 770 773 775 778 781 784 786 789 791 793 794 796 798 800 802 804 805 806 808 810 811 813 815 816 817 819 820 821 822 824 825 827 828 830 831 832 833 834 835 836 837 838 838 839 840 840 841 841 841 841 841 841 842 842 843 843 844 844 844 844 844 844 844 845 845 845 846 846 846 846 845 843 843 843 842 842
743 747 749 751 753 755 758 761 764 767 769 772 775 778 781 783 785 787 789 791 793 795 797 799 800 802 803 805 807 809 810 812 814 815 816 817 819 820 821 823 825 826 827 828 829 831 833 834 835 836 837 838 838 839 839 840 840 841 841 841 841 842 842 843 843 844 844 844 844 844 844 844 844 844 844 844 845 845 845 845 843 843 843 841 841
738 740 743 745 747 749 752 756 759 763 766 769 772 774 777 779 781 783 785 787 789 792 794 795 797 798 800 802 804 806 807 810 811 812 813 815 816 818 820 821 823 824 825 826 828 830 832 833 834 836 836 837 838 838 839 839 840 840 841 841 841 842 842 842 843 843 843 843 844 844 844 844 844 844 843 843 843 844 844 843 843 842 841 840 839
734 735 737 738 740 744 747 750 754 758 761 765 768 771 773 775 776 779 781 783 786 788 790 791 793 795 796 798 800 802 805 806 807 808 810 812 814 817 818 820 821 822 823 825 827 829 830 832 833 835 836 837 837 838 838 839 839 840 840 841 841 841 841 841 842 842 843 843 843 843 843 843 843 843 843 843 842 842 842 842 842 842 840 838 837
729 730 732 733 735 739 743 746 750 754 758 761 763 766 767 770 772 774 777 780 782 784 786 787 789 791 792 794 796 799 801 802 803 805 808 811 813 815 817 818 819 820 822 824 826 827 829 830 832 833 834 836 836 837 838 838 838 839 839 840 840 840 840 841 841 841 842 842 842 842 842 842 842 842 842 842 841 841 841 841 841 841 840 838 836
723 725 726 728 730 734 737 741 746 749 753 756 757 759 761 764 767 770 774 776 778 780 782 784 786 787 788 790 793 795 797 799 801 804 807 809 812 813 815 816 817 819 820 822 824 825 827 829 830 832 833 834 835 835 836 837 837 838 838 839 839 839 840 840 840 840 840 840 840 840 840 840 840 840 840 840 840 839 839 839 839 839 839 839 837
717 719 721 723 725 729 732 736 740 743 747 749 751 754 757 761 764 767 770 772 774 776 779 781 782 783 784 787 790 792 794 796 799 802 805 807 809 811 812 813 815 816 818 820 822 823 825 827 828 830 831 833 834 834 834 835 836 837 837 837 838 838 838 838 838 839 839 839 838 838 838 838 838 838 838 838 838 838 837 837 837 837 837 837 837
714 715 718 721 722 725 728 732 736 739 742 744 748 752 755 758 761 764 766 768 771 774 775 777 777 779 781 783 786 789 791 794 797 800 802 804 806 808 809 811 813 815 816 818 820 821 823 825 826 828 830 831 832 832 833 834 834 835 836 837 837 837 837 837 837 837 837 837 836 836 836 836 836 836 836 836 836 836 835 835 835 835 835 835 835
709 711 714 715 717 720 724 728 731 734 738 741 745 749 752 755 757 760 763 766 768 770 771 772 773 775 778 781 783 785 788 791 794 797 799 801 803 804 806 808 810 812 814 816 818 820 822 824 825 827 828 829 830 830 831 832 833 834 835 836 836 836 836 836 836 836 836 836 835 835 834 834 834 834 834 834 834 833 833 832 832 832 832 832 833
705 706 708 710 712 716 720 725 728 731 735 738 743 746 748 751 754 756 759 762 764 766 766 767 768 772 775 778 780 782 785 788 791 793 796 797 799 801 803 805 807 809 812 813 815 818 821 822 824 825 826 827 828 829 829 830 831 832 833 834 835 835 835 834 835 835 834 834 834 833 833 832 832 832 832 832 831 831 830 830 830 829 829 830 830
700 701 703 705 708 712 717 721 725 729 732 735 739 742 745 748 750 752 755 758 760 761 761 762 765 769 772 774 776 779 782 785 787 790 792 795 797 799 802 804 806 808 810 811 813 815 818 820 821 823 825 826 826 827 828 828 829 830 831 832 833 833 833 833 833 833 832 832 832 831 831 830 830 829 829 829 829 828 828 827 827 827 827 827 827
696 697 699 702 705 709 714 718 721 724 727 731 734 737 741 743 746 749 751 753 755 756 756 759 763 767 768 771 773 776 779 782 784 787 789 792 794 797 800 803 805 807 809 811 811 812 814 817 819 821 824 825 825 825 826 827 827 828 829 830 830 830 830 830 830 830 830 830 829 829 828 828 827 827 826 826 826 826 825 825 824 824 824 823 824
694 696 697 700 704 707 711 715 718 721 724 728 731 734 737 740 743 746 748 749 751 752 754 757 760 763 765 768 770 772 776 778 781 783 786 789 792 795 799 802 804 806 807 808 809 810 813 815 816 818 821 823 824 824 825 825 825 826 826 827 827 827 827 827 827 827 827 827 827 826 826 826 825 824 824 824 823 823 823 822 822 821 821 821 820
694 696 697 699 702 705 708 711 714 717 721 724 728 731 734 736 739 742 744 746 748 750 752 754 757 760 762 764 766 769 771 774 776 780 782 785 788 791 795 798 800 802 802 803 803 806 811 813 812 813 817 819 821 822 823 823 823 823 823 824 824 824 825 825 825 825 825 825 824 824 823 823 823 822 822 821 821 821 820 820 819 819 818 818 817
693 694 696 698 700 703 705 708 711 714 718 721 724 728 731 733 736 738 741 743 745 747 749 751 754 757 758 760 762 764 767 769 771 775 778 781 784 787 790 793 795 797 798 798 799 801 805 809 810 810 812 815 817 819 819 820 820 820 820 821 821 822 822 822 823 823 823 823 822 822 821 821 820 820 819 819 819 818 818 817 817 816 816 815 815
691 692 695 697 699 701 703 706 709 712 715 718 721 725 728 730 733 736 738 741 743 744 746 749 751 753 754 755 757 759 761 764 767 772 777 779 781 785 787 789 792 794 795 796 797 798 800 804 807 808 809 811 813 815 816 816 817 817 818 818 819 820 820 821 821 821 821 821 820 820 819 818 817 817 817 816 816 816 816 815 814 814 813 813 812
690 691 693 695 697 699 701 704 707 710 713 716 720 723 726 728 731 733 736 738 740 741 743 745 748 749 750 751 753 756 758 762 766 771 774 776 778 782 784 787 791 793 794 795 797 799 799 801 804 805 807 808 809 811 812 813 814 815 815 816 816 817 818 818 819 819 819 818 818 817 816 815 815 814 814 814 814 813 813 812 812 811 811 810 809
688 688 689 691 694 696 698 701 704 708 711 714 718 721 723 726 728 730 733 735 736 737 739 742 744 744 746 748 751 754 758 761 765 767 768 771 776 781 782 784 788 791 792 794 796 798 799 800 802 803 805 806 806 808 809 810 811 812 812 813 814 815 815 816 816 816 816 815 815 814 813 812 812 811 811 811 811 811 810 810 809 809 808 808 807
683 684 685 687 690 692 695 699 702 705 708 711 714 717 720 723 725 728 730 731 732 734 736 738 740 741 743 746 749 752 756 759 761 763 765 767 773 778 780 780 783 786 789 791 793 795 798 800 800 801 802 803 803 804 806 807 808 809 809 810 811 811 812 812 812 812 812 812 811 811 810 809 809 808 808 808 808 808 807 806 806 806 805 805 804
679 681 683 685 688 691 693 696 699 701 704 707 710 714 717 720 722 724 726 728 730 732 733 735 736 738 741 744 746 749 752 755 758 760 763 764 766 771 775 777 779 781 784 788 791 792 795 797 798 797 797 799 800 801 803 804 805 806 807 807 808 808 808 809 809 809 809 808 808 807 806 806 806 805 805 805 804 804 804 803 803 803 802 802 801
677 679 682 684 686 688 691 692 695 697 701 704 708 712 715 717 719 721 723 725 727 728 730 732 734 736 739 740 743 746 749 753 755 758 761 762 764 768 771 772 775 778 781 784 788 790 791 793 794 794 794 795 796 798 799 801 802 803 804 804 805 805 805 806 806 806 806 805 804 804 804 803 803 803 802 802 801 801 800 800 800 799 799 798 797
674 676 678 680 681 683 685 688 690 694 697 701 705 708 711 712 714 717 719 721 723 725 727 729 731 734 736 738 742 745 747 750 753 756 759 762 765 770 772 770 772 776 780 783 785 787 788 790 790 790 791 792 794 795 796 798 799 800 802 802 802 803 803 803 803 803 803 802 802 801 801 801 800 800 799 799 799 798 798 797 797 796 795 794 793
671 672 674 675 677 679 683 685 689 692 695 699 702 704 706 709 712 714 717 719 721 723 725 727 729 732 734 737 741 743 746 748 751 755 758 761 765 769 771 772 773 776 779 781 783 784 785 787 787 788 789 790 791 792 793 795 797 798 799 800 800 801 800 800 800 800 800 800 799 799 799 799 798 797 797 797 796 796 796 795 795 793 792 792 791
669 670 672 674 676 679 682 685 688 691 694 697 699 702 705 707 710 713 715 717 719 721 722 725 728 730 733 736 739 742 744 747 749 753 756 760 763 764 767 770 773 775 777 779 781 781 782 784 785 785 786 787 787 789 791 793 794 796 797 798 798 798 797 797 797 797 798 798 797 797 796 796 796 795 795 795 794 794 794 793 792 791 790 789 789
666 667 669 672 674 677 680 683 686 689 692 695 697 700 703 706 708 711 713 715 717 719 721 724 727 729 732 734 737 741 743 744 747 750 753 757 759 760 762 766 770 773 775 776 778 779 780 782 782 782 783 784 785 787 788 790 792 794 794 794 794 794 794 794 795 795 795 795 795 795 794 793 793 793 793 792 792 792 792 791 790 789 787 787 786
665 666 668 669 672 675 678 682 685 689 692 693 696 698 701 704 707 710 712 714 716 718 720 723 725 728 730 732 735 738 741 743 745 748 751 753 755 758 760 764 767 770 772 774 775 776 777 778 779 779 780 781 783 784 786 787 789 790 791 791 791 791 791 792 793 793 793 793 793 792 791 791 791 791 791 790 790 790 789 788 788 786 785 785 784
664 666 668 670 673 676 679 683 686 690 692 693 695 698 701 704 706 709 711 713 715 717 719 722 724 726 728 731 733 736 738 741 743 745 747 750 753 757 759 762 765 768 769 771 771 772 774 775 776 777 778 779 780 781 783 784 786 787 788 788 788 789 789 790 791 791 791 791 790 790 789 788 789 789 789 788 787 787 786 786 785 784 784 783 783
664 667 669 672 675 677 681 684 688 691 692 693 695 698 701 704 707 709 711 712 714 717 718 721 723 725 727 729 732 734 736 738 741 742 745 749 752 755 758 760 763 766 767 768 769 770 771 772 774 775 776 777 778 779 780 782 783 784 785 785 785 786 787 788 789 789 788 788 788 788 787 786 787 787 786 785 784 784 783 783 783 783 782 782 781
665 668 670 673 676 679 683 686 688 690 691 693 696 699 702 704 707 709 711 713 715 716 718 720 722 724 727 729 730 732 735 737 739 741 744 748 751 753 756 759 761 763 765 765 767 768 769 770 772 773 774 775 777 778 779 780 781 782 783 782 783 785 787 787 788 788 787 786 786 786 784 784 785 784 783 782 781 781 780 780 781 781 781 780 779
666 669 671 675 678 681 683 686 688 690 692 694 696 698 701 704 706 709 712 713 714 716 717 719 721 724 726 728 729 731 734 737 739 741 744 747 750 752 755 757 759 761 762 763 764 765 767 768 769 770 771 773 774 775 776 776 778 780 780 780 782 785 786 786 787 787 786 785 784 783 783 782 782 782 781 780 779 779 778 778 778 778 778 778 777
668 670 673 676 679 682 684 687 689 691 694 695 696 698 701 704 707 710 712 713 714 715 716 718 721 723 725 727 728 731 734 736 738 740 743 746 749 752 754 756 758 759 760 761 763 764 765 765 766 767 769 770 771 772 772 773 775 777 778 779 781 783 783 784 785 785 783 782 781 781 781 780 779 779 778 778 777 777 776 776 776 776 776 776 775
670 672 673 674 678 682 685 688 690 693 696 697 698 699 701 704 708 710 712 713 714 715 716 718 720 723 724 726 728 730 733 735 736 738 742 744 747 750 752 754 756 758 759 761 762 763 763 763 764 766 768 769 770 770 770 771 773 775 777 777 778 779 780 782 782 781 780 779 779 778 778 777 777 777 776 776 775 775 775 776 776 775 775 775 773
670 672 673 674 678 682 685 688 691 693 695 698 700 701 703 705 708 709 710 712 713 715 717 718 720 722 724 726 728 730 732 733 734 737 741 743 746 749 751 752 754 756 758 759 760 761 762 761 763 764 765 767 769 768 769 771 773 774 775 775 776 777 778 779 779 778 777 777 776 776 776 775 775 775 774 774 774 775 775 775 775 774 774 773 771
673 674 675 677 681 684 687 689 691 693 695 698 700 702 704 705 706 708 709 711 713 715 716 718 719 721 723 725 727 729 730 731 733 736 739 742 745 748 749 750 752 754 755 756 757 759 759 759 760 761 763 765 766 767 768 770 771 773 773 774 774 775 776 776 776 776 775 775 774 774 774 774 774 773 773 774 774 774 774 774 774 773 772 771 769
676 677 679 681 684 686 688 690 693 695 697 699 701 702 703 704 705 707 709 711 712 714 716 717 719 720 722 724 726 728 729 731 733 735 738 741 744 746 747 749 751 752 753 754 756 756 757 757 758 759 760 763 764 765 766 768 770 771 771 772 772 773 773 774 774 774 774 773 773 773 773 773 772 772 773 774 774 773 773 772 772 771 770 768 767
679 679 681 683 684 686 689 691 694 696 698 700 701 702 703 704 706 707 709 711 712 713 715 716 718 719 722 724 725 727 729 730 732 735 737 740 742 744 746 747 749 751 752 753 754 754 754 755 756 757 759 761 762 764 765 767 768 769 770 770 771 771 772 772 773 773 772 772 772 772 771 771 771 772 772 773 772 772 771 770 769 769 768 767 766
684 684 684 684 684 686 689 692 694 697 698 700 701 702 703 705 706 708 709 710 712 713 714 715 717 719 721 723 725 727 728 730 731 733 736 738 740 742 745 746 747 748 750 751 751 752 752 753 754 755 757 758 760 762 763 764 766 766 767 768 769 770 770 771 771 771 771 771 771 771 771 771 771 771 772 772 771 770 769 768 768 767 766 766 765
686 687 687 686 687 689 692 694 696 697 699 700 701 702 704 705 705 707 708 710 712 712 713 714 716 718 721 722 724 726 727 729 731 733 734 736 738 741 743 744 746 747 748 749 750 750 751 751 752 754 755 756 758 759 760 761 763 764 766 766 767 768 768 769 769 769 770 770 771 770 771 771 771 771 770 770 769 768 767 767 766 766 766 766 765
687 689 689 690 691 692 694 696 697 698 699 700 701 702 703 704 705 707 708 710 711 711 713 714 716 718 721 722 724 725 727 728 731 733 734 736 738 740 742 743 744 745 746 747 748 749 750 750 752 753 753 754 756 757 758 760 761 763 764 764 765 766 766 767 768 768 769 769 769 769 769 769 769 769 768 767 767 766 766 766 766 766 766 765 765
689 690 691 692 694 695 696 698 698 699 699 700 701 702 703 705 706 708 709 709 710 711 713 714 716 718 720 721 723 725 726 728 730 732 734 736 737 739 740 741 743 744 745 746 747 747 749 750 751 752 752 753 755 756 758 759 760 761 762 762 763 764 765 766 766 767 768 768 768 768 768 768 768 767 766 765 765 765 766 766 766 766 765 765 764